Location: Mizzole
(45.4833°N, 11.0500°E)
Time: 04:31:05
(UTC+00:00)

H-2A R/B - Pass Details

Date: 21 October 2019
Orbit: 734 x 837 km, 98.3° (Epoch: 17 November)

Event Time Altitude Azimuth Distance (km) Brightness Sun altitude
Exits shadow 18:42:58 43° 30° (NNE) 1,157 2.7 -25.6°
Drops below altitude 10° 18:47:00 10° 356° (N) 2,452 4.8 -26.3°
Sets 18:49:26 0° 351° (N) 3,396 5.6 -26.7°
